FENGYUN 1C DEB, 31902

Orbit data source: Space-Track

FENGYUN 1C DEB, 31902 is space debris in SSO originally from a launch on Mon, 10 May 1999 UTC launched from the Taiyaun Space Center, China (TSC). Fengyun 1C debris stems from the Chinese weather satellite Fengyun-1C, which was intentionally destroyed by a Chinese anti-satellite missile in 2007. This event dramatically increased the amount of space debris, with thousands of trackable fragments posing hazards to satellites and human spaceflight. The Fengyun 1C debris cloud has become a focal point in discussions about space sustainability and the need for international regulations to prevent the creation of new debris.

Loading next visibility...
Identifier
31902, 1999-025CLD
Orbit
SSO
Country
Flag of CNCN / PRC
Related business
Manufacturer
Unknown
Mission
Spacecraft
Bus & Motor
Unknown
Mass
Unknown
Launch date (UTC)
1999-05-10 (27 years ago)
Launch vehicle
Unknown
Launch site
Taiyaun Space Center, China (TSC)
Object type
Payload
Rocket body
Debris
Shape & HBR
Unknown shape, 0.1 m
Radar Cross Section
Small (<0.1 m²)

Expand to show TLE details & history
Last TLE update: 3 days ago

TLE from 3 days ago
0 FENGYUN 1C DEB
1 31902U 99025CLD 26164.77292888  .00000613  00000-0  24519-3 0  9994
2 31902  98.5259 143.9456 0179162 336.3319 143.6067 14.23594032673951
Epoch: 2026-06-13T18:33Z
TLE epoch observation values (Epoch: 2026-06-13T18:33:01.055Z)
Latitude
57.92925°
Longitude
157.37691°
Altitude
927.484 km
Speed
7.34 km/s
True Right ascension
22h 30m 51s
True Declination
57° 46' 40"
Sunlit
Object was in daylight at epoch
Visualization orbit readout
Latitude
Unknown
Longitude
Unknown
Altitude
Unknown
Speed
Unknown
Apparent Right ascension
Unknown
Apparent Declination
Unknown
Sunlit
N/A
Visualization observer readout
Local Sidereal Time
20:15:49
Azimuth
Unknown
Elevation
Unknown
Doppler factor
Unknown
Orbital elements
Apogee altitude
939.158 km
Perigee altitude
681.577 km
Semi-major axis
7,188.504 km
Eccentricity
0.01792
Inclination
98.5259°
RAAN
143.9456°
Arg. of periapsis
336.3319°
True anomaly
144.80315°
Mean anomaly
143.6067°
Eccentric anomaly
144.20707°
Mean motion
3.56111 °/min
Orbital period
101.09 mins
BSTAR
0.00024519
Loading maneuver chart data...
Computing Atmospheric mass density...
Loading historical data...
Loading historical data...
Loading historical data...
Loading historical data...
Loading historical data...
Loading historical data...
Loading historical data...

Documentation

Showing up to 5 results
|